Waverly, WV

8:14 AM EST on February 07, 2016 (GMT -0500)
Wood County Wilson

Weather History for KPKB - June, 2013

Change the Weather History Date:

Wednesday, June 12, 2013

  Actual Average Record
Temperature  
Mean Temperature 78 °F 70 °F  
Max Temperature 87 °F 81 °F 93 °F (1902)
Min Temperature 68 °F 59 °F 43 °F (1980)
Degree Days  
Heating Degree Days 0 1  
Month to date heating degree days 6 16  
Since 1 June heating degree days 6 16  
Since 1 July heating degree days 5003 4969  
Cooling Degree Days 13 6  
Month to date cooling degree days 58 56  
Year to date cooling degree days 184 140  
Since 1 June cooling degree days 58 56  
Growing Degree Days 28 (Base 50)    
Moisture  
Dew Point 69 °F    
Average Humidity 73    
Maximum Humidity 85    
Minimum Humidity 61    
Precipitation  
Precipitation T in 0.14 in 0.92 in (2001)
Month to date precipitation 2.07 1.74  
Year to date precipitation 14.89 18.69  
Snow  
Snow 0.00 in - - ()
Month to date snowfall 0.0  
Snow Depth 0.00 in    
Sea Level Pressure  
Sea Level Pressure 29.90 in    
Wind  
Wind Speed 4 mph (SSW)    
Max Wind Speed 13 mph    
Max Gust Speed 16 mph    
Visibility 9 miles    
Events      
T = Trace of Precipitation, MM = Missing Value Source: NWS Daily Summary

Daily Weather History Graph

Daily Weather History Graph

Search for Another Location

Airport or City:

Trip Planner

Search our weather history database for the weather conditions in past years. The results will help you decide how hot, cold, wet, or windy it might be!

Date:

Astronomy

Jun. 12, 2013 Rise Set
Actual Time 5:58 AM EDT 8:53 PM EDT
Civil Twilight 5:26 AM EDT 9:25 PM EDT
Nautical Twilight 4:45 AM EDT 10:06 PM EDT
Astronomical Twilight 3:58 AM EDT 10:53 PM EDT
Moon 9:35 AM EDT (6/12) 11:29 PM EDT (6/12)
Length of Visible Light 15h 59m
Length of Day
14h 54m
Waxing Crescent, 14% of the Moon is Illuminated
Jun 12
Waxing Crescent
Jun 16
First Quarter
Jun 23
Full
Jun 30
Last Quarter
Jul 8
New

Hourly Weather History & Observations

Time (EDT) Temp. Heat Index Dew Point Humidity Pressure Visibility Wind Dir Wind Speed Gust Speed Precip Events Conditions
12:53 AM 71.1 °F - 64.0 °F 78% 29.94 in 10.0 mi West 5.8 mph - N/A   Clear
1:53 AM 71.1 °F - 64.0 °F 78% 29.94 in 10.0 mi WSW 4.6 mph - N/A   Clear
2:53 AM 69.1 °F - 64.0 °F 84% 29.93 in 10.0 mi WSW 3.5 mph - N/A   Partly Cloudy
3:53 AM 70.0 °F - 64.0 °F 81% 29.93 in 10.0 mi Calm Calm - N/A   Overcast
4:53 AM 70.0 °F - 64.0 °F 81% 29.93 in 10.0 mi Calm Calm - N/A   Overcast
5:53 AM 69.1 °F - 64.0 °F 84% 29.94 in 10.0 mi Calm Calm - N/A   Overcast
6:53 AM 70.0 °F - 64.9 °F 84% 29.94 in 10.0 mi South 3.5 mph - N/A   Overcast
7:53 AM 71.1 °F - 64.9 °F 81% 29.96 in 10.0 mi Calm Calm - N/A   Overcast
8:53 AM 72.0 °F - 66.0 °F 81% 29.96 in 10.0 mi Calm Calm - 0.00 in   Mostly Cloudy
9:53 AM 75.9 °F - 66.9 °F 74% 29.94 in 10.0 mi Calm Calm - N/A   Partly Cloudy
10:53 AM 80.1 °F 82.7 °F 68.0 °F 67% 29.94 in 10.0 mi Variable 3.5 mph - N/A   Partly Cloudy
11:53 AM 82.0 °F 84.9 °F 68.0 °F 62% 29.94 in 10.0 mi SSW 4.6 mph - N/A   Clear
12:53 PM 82.9 °F 85.8 °F 68.0 °F 60% 29.94 in 10.0 mi WSW 6.9 mph - N/A   Scattered Clouds
1:53 PM 84.0 °F 88.4 °F 70.0 °F 63% 29.93 in 9.0 mi Variable 4.6 mph - N/A   Partly Cloudy
2:53 PM 84.9 °F 90.1 °F 71.1 °F 63% 29.91 in 9.0 mi Variable 5.8 mph - N/A   Partly Cloudy
3:53 PM 86.0 °F 92.2 °F 72.0 °F 63% 29.88 in 8.0 mi SSW 5.8 mph - N/A   Scattered Clouds
4:53 PM 86.0 °F 91.5 °F 71.1 °F 61% 29.85 in 10.0 mi SSW 8.1 mph - N/A   Partly Cloudy
5:53 PM 84.9 °F 90.7 °F 72.0 °F 65% 29.84 in 7.0 mi South 8.1 mph - N/A   Mostly Cloudy
6:53 PM 84.0 °F 90.2 °F 73.0 °F 69% 29.84 in 8.0 mi SSW 4.6 mph - N/A   Scattered Clouds
7:53 PM 84.0 °F 89.6 °F 72.0 °F 67% 29.83 in 9.0 mi South 3.5 mph - N/A   Clear
8:53 PM 81.0 °F 86.2 °F 73.9 °F 79% 29.82 in 7.0 mi SE 3.5 mph - N/A   Clear
9:53 PM 79.0 °F - 73.9 °F 84% 29.82 in 8.0 mi SE 3.5 mph - N/A   Partly Cloudy
10:53 PM 78.1 °F - 73.0 °F 84% 29.79 in 8.0 mi South 8.1 mph - N/A   Partly Cloudy
11:53 PM 79.0 °F - 73.0 °F 82% 29.77 in 9.0 mi SSW 8.1 mph - N/A   Clear